Change the Weather History Date:

Tuesday, April 9, 2013

  Actual Average Record
Temperature  
Mean Temperature 33 °F -  
Max Temperature 38 °F 52 °F 81 °F (1977)
Min Temperature 28 °F 31 °F 8 °F (1997)
Degree Days  
Heating Degree Days 32    
Moisture  
Dew Point 29 °F    
Average Humidity 82    
Maximum Humidity 96    
Minimum Humidity 67    
Precipitation  
Precipitation 0.13 in - - ()
Sea Level Pressure  
Sea Level Pressure 30.06 in    
Wind  
Wind Speed 12 mph (NNE)    
Max Wind Speed 28 mph    
Max Gust Speed 36 mph    
Visibility 8 miles    
Events Rain , Snow    
Averages and records for this station are not official NWS values.
T = Trace of Precipitation, MM = Missing Value Source: NWS Daily Summary

Daily Weather History Graph

Daily Weather History Graph

Search for Another Location

Airport or City:

Trip Planner

Search our weather history database for the weather conditions in past years. The results will help you decide how hot, cold, wet, or windy it might be!

Date:

Astronomy

Apr. 09, 2013 Rise Set
Actual Time 6:43 AM CDT 7:55 PM CDT
Civil Twilight 6:13 AM CDT 8:25 PM CDT
Nautical Twilight 5:36 AM CDT 9:02 PM CDT
Astronomical Twilight 4:58 AM CDT 9:40 PM CDT
Moon 6:07 AM CDT (4/9) 7:32 PM CDT (4/9)
Length of Visible Light 14h 12m
Length of Day
13h 12m
Waning Crescent, 1% of the Moon is Illuminated
Apr 9
Waning Crescent
Apr 10
New
Apr 18
First Quarter
Apr 25
Full
May 2
Last Quarter

Hourly Weather History & Observations

Time (CDT) Temp. Windchill Dew Point Humidity Pressure Visibility Wind Dir Wind Speed Gust Speed Precip Events Conditions
12:14 AM 38.5 °F 32.1 °F 35.8 °F 90% 30.04 in 10.0 mi NNE 9.2 mph - N/A   Overcast
12:34 AM 37.8 °F 29.8 °F 34.2 °F 87% 30.04 in 10.0 mi NNE 12.7 mph - N/A   Overcast
12:53 AM 37.4 °F 30.3 °F 33.8 °F 87% 30.04 in 10.0 mi NNE 10.4 mph - N/A   Overcast
1:14 AM 37.0 °F 28.9 °F 33.4 °F 87% 30.03 in 10.0 mi NNE 12.7 mph 16.1 mph N/A   Overcast
1:34 AM 37.0 °F 29.8 °F 33.4 °F 87% 30.04 in 10.0 mi NNE 10.4 mph - N/A   Overcast
1:54 AM 37.0 °F 30.4 °F 33.4 °F 87% 30.04 in 10.0 mi North 9.2 mph - N/A   Overcast
2:14 AM 36.7 °F 29.4 °F 33.3 °F 87% 30.04 in 10.0 mi North 10.4 mph - N/A   Overcast
2:34 AM 36.5 °F 29.2 °F 33.1 °F 87% 30.01 in 10.0 mi North 10.4 mph 18.4 mph N/A   Overcast
2:53 AM 36.1 °F 26.9 °F 32.9 °F 88% 29.99 in 10.0 mi North 15.0 mph 20.7 mph N/A   Overcast
3:14 AM 36.0 °F 26.7 °F 32.4 °F 87% 30.00 in 10.0 mi North 15.0 mph 21.9 mph N/A   Overcast
3:34 AM 35.8 °F 27.3 °F 32.0 °F 86% 30.02 in 10.0 mi North 12.7 mph 19.6 mph N/A   Overcast
3:54 AM 35.6 °F 25.9 °F 32.0 °F 87% 30.01 in 10.0 mi North 16.1 mph 26.5 mph N/A   Overcast
4:14 AM 35.6 °F 25.5 °F 32.0 °F 87% 30.05 in 10.0 mi NNE 17.3 mph 21.9 mph N/A   Overcast
4:33 AM 35.6 °F 24.8 °F 32.0 °F 87% 30.04 in 10.0 mi NNE 19.6 mph 24.2 mph N/A   Overcast
4:54 AM 35.1 °F 25.5 °F 32.0 °F 89% 30.04 in 10.0 mi North 15.0 mph 23.0 mph N/A   Overcast
5:14 AM 34.9 °F 26.2 °F 31.8 °F 89% 30.04 in 10.0 mi North 12.7 mph 21.9 mph N/A   Overcast
5:34 AM 34.2 °F 25.2 °F 31.3 °F 89% 30.04 in 10.0 mi North 12.7 mph 21.9 mph N/A Rain Light Rain
5:54 AM 33.8 °F 23.9 °F 30.4 °F 87% 30.04 in 10.0 mi North 15.0 mph 21.9 mph N/A   Light Drizzle
6:14 AM 33.1 °F 23.0 °F 29.7 °F 87% 30.04 in 10.0 mi NNE 15.0 mph 24.2 mph N/A   Overcast
6:33 AM 32.9 °F 22.4 °F 29.3 °F 87% 30.04 in 10.0 mi North 16.1 mph 25.3 mph N/A   Overcast
6:54 AM 32.2 °F 21.4 °F 27.9 °F 84% 30.05 in 10.0 mi North 16.1 mph 27.6 mph N/A   Overcast
7:14 AM 32.0 °F 20.5 °F 27.5 °F 83% 30.04 in 10.0 mi NNE 18.4 mph 25.3 mph N/A   Drizzle
7:33 AM 32.0 °F 21.6 °F 27.9 °F 85% 30.06 in 10.0 mi NNE 15.0 mph 23.0 mph N/A Rain Light Rain
7:52 AM 31.8 °F 20.2 °F 28.2 °F 87% 30.04 in 7.0 mi NNE 18.4 mph 26.5 mph N/A Rain Light Freezing Rain
8:14 AM 31.6 °F 22.1 °F 28.0 °F 87% 30.04 in 10.0 mi North 12.7 mph 21.9 mph N/A Rain Light Freezing Rain
8:28 AM 31.5 °F 21.4 °F 28.0 °F 87% 30.04 in 7.0 mi North 13.8 mph - N/A Rain Light Freezing Rain
8:45 AM 30.2 °F 20.8 °F 28.4 °F 93% 30.04 in 7.0 mi North 11.5 mph 20.7 mph N/A   Overcast
9:05 AM 30.2 °F 21.3 °F 26.6 °F 86% 30.04 in 7.0 mi North 10.4 mph 17.3 mph N/A   Overcast
9:25 AM 30.2 °F 21.3 °F 26.6 °F 86% 30.05 in 7.0 mi North 10.4 mph 18.4 mph N/A   Overcast
9:48 AM 30.2 °F 21.9 °F 26.8 °F 87% 30.06 in 5.0 mi North 9.2 mph - N/A Snow Light Snow
9:54 AM 30.0 °F 21.1 °F 26.6 °F 87% 30.07 in 5.0 mi North 10.4 mph 16.1 mph N/A Snow Light Snow
10:14 AM 29.8 °F 20.9 °F 26.6 °F 88% 30.07 in 4.0 mi North 10.4 mph 16.1 mph N/A Snow Light Snow
10:34 AM 29.7 °F 22.0 °F 26.6 °F 88% 30.09 in 4.0 mi North 8.1 mph - N/A Snow Light Snow
10:54 AM 29.7 °F 23.7 °F 27.1 °F 90% 30.10 in 2.0 mi North 5.8 mph - N/A Snow Light Snow
11:14 AM 28.9 °F 20.4 °F 26.8 °F 92% 30.10 in 1.0 mi North 9.2 mph 20.7 mph N/A Snow Light Snow
11:34 AM 28.8 °F 20.9 °F 26.6 °F 92% 30.10 in 1.5 mi North 8.1 mph - N/A Snow Light Snow
11:54 AM 29.3 °F 19.6 °F 27.0 °F 91% 30.08 in 4.0 mi North 11.5 mph 17.3 mph N/A Snow Light Snow
12:14 PM 29.8 °F 20.3 °F 26.8 °F 88% 30.07 in 10.0 mi North 11.5 mph 20.7 mph N/A   Overcast
12:34 PM 30.0 °F 22.4 °F 27.1 °F 89% 30.09 in 10.0 mi North 8.1 mph 18.4 mph N/A   Overcast
12:54 PM 30.7 °F 23.3 °F 26.8 °F 85% 30.08 in 10.0 mi North 8.1 mph - N/A   Overcast
1:13 PM 31.5 °F 21.8 °F 26.6 °F 82% 30.07 in 10.0 mi NNE 12.7 mph 17.3 mph N/A Rain Light Freezing Rain
1:34 PM 32.0 °F 24.2 °F 26.6 °F 80% 30.06 in 10.0 mi North 9.2 mph 18.4 mph N/A Rain Light Rain
1:54 PM 32.9 °F 22.8 °F 27.3 °F 80% 30.05 in 10.0 mi North 15.0 mph 20.7 mph N/A   Overcast
2:14 PM 33.8 °F 20.5 °F 27.5 °F 78% 30.03 in 10.0 mi NNE 27.6 mph 35.7 mph N/A   Scattered Clouds
2:34 PM 35.6 °F 24.8 °F 28.0 °F 74% 30.04 in 10.0 mi NNE 19.6 mph 31.1 mph N/A   Clear
2:54 PM 36.7 °F 25.7 °F 28.4 °F 72% 30.06 in 10.0 mi NNE 21.9 mph 28.8 mph 0.02 in   Mostly Cloudy
3:14 PM 36.7 °F 25.4 °F 28.0 °F 71% 30.06 in 10.0 mi NNE 23.0 mph 29.9 mph 0.10 in   Overcast
3:34 PM 36.5 °F 25.7 °F 27.5 °F 70% 30.06 in 10.0 mi NNE 20.7 mph 26.5 mph 0.10 in   Overcast
3:53 PM 36.7 °F 27.6 °F 27.5 °F 69% 30.07 in 10.0 mi NNE 15.0 mph 23.0 mph 0.10 in   Overcast
4:14 PM 36.7 °F 29.4 °F 27.5 °F 69% 30.08 in 10.0 mi North 10.4 mph 18.4 mph N/A   Overcast
4:34 PM 36.9 °F 29.1 °F 27.5 °F 69% 30.08 in 10.0 mi North 11.5 mph 17.3 mph N/A   Overcast
4:54 PM 36.9 °F 30.1 °F 27.9 °F 70% 30.10 in 10.0 mi North 9.2 mph - N/A   Overcast
5:14 PM 36.7 °F 29.9 °F 27.5 °F 69% 30.09 in 10.0 mi North 9.2 mph 19.6 mph N/A   Overcast
5:34 PM 36.7 °F 29.4 °F 27.3 °F 69% 30.09 in 10.0 mi North 10.4 mph 16.1 mph N/A   Overcast
5:54 PM 36.7 °F 28.9 °F 27.9 °F 70% 30.08 in 10.0 mi North 11.5 mph 20.7 mph N/A   Overcast
6:14 PM 36.5 °F 29.2 °F 27.3 °F 69% 30.08 in 10.0 mi North 10.4 mph 17.3 mph N/A   Overcast
6:33 PM 36.5 °F 29.2 °F 27.1 °F 69% 30.08 in 10.0 mi North 10.4 mph 17.3 mph N/A   Overcast
6:53 PM 36.5 °F 29.2 °F 27.3 °F 69% 30.08 in 10.0 mi North 10.4 mph 17.3 mph N/A   Overcast
7:14 PM 36.1 °F 26.5 °F 26.6 °F 68% 30.06 in 10.0 mi North 16.1 mph 23.0 mph N/A   Overcast
7:33 PM 36.0 °F 26.7 °F 26.2 °F 68% 30.05 in 10.0 mi North 15.0 mph 21.9 mph N/A   Overcast
7:54 PM 36.0 °F 27.5 °F 26.1 °F 67% 30.05 in 10.0 mi North 12.7 mph 23.0 mph N/A   Overcast
8:14 PM 36.0 °F 26.7 °F 26.2 °F 68% 30.04 in 10.0 mi North 15.0 mph 23.0 mph N/A Rain Light Rain
8:34 PM 35.6 °F 26.6 °F 27.5 °F 72% 30.05 in 10.0 mi North 13.8 mph 21.9 mph N/A Rain Light Rain
8:54 PM 35.2 °F 27.6 °F 28.4 °F 76% 30.06 in 10.0 mi NNE 10.4 mph - N/A Rain Light Rain
9:14 PM 35.6 °F 25.5 °F 28.0 °F 74% 30.05 in 10.0 mi NNE 17.3 mph 21.9 mph 0.01 in Rain Light Rain
9:54 PM 35.4 °F 29.0 °F 28.6 °F 76% 30.11 in 10.0 mi NE 8.1 mph - 0.01 in Rain Rain
10:14 PM 34.9 °F 30.8 °F 28.9 °F 79% 30.15 in 5.0 mi East 4.6 mph - N/A   Overcast
10:34 PM 34.3 °F 31.4 °F 29.3 °F 82% 30.18 in 7.0 mi ENE 3.5 mph - N/A Snow Light Snow
10:54 PM 33.1 °F 26.1 °F 30.9 °F 92% 30.18 in 1.5 mi NE 8.1 mph - N/A Snow Light Snow
11:14 PM 32.0 °F 20.8 °F 30.7 °F 95% 30.15 in 1.0 mi NE 17.3 mph 25.3 mph N/A Snow Snow
11:34 PM 31.5 °F 21.4 °F 30.4 °F 96% 30.16 in 1.5 mi NE 13.8 mph 21.9 mph N/A Snow Light Snow
11:54 PM 31.1 °F 21.4 °F 30.0 °F 96% 30.18 in 2.5 mi NE 12.7 mph - N/A Snow Light Snow